Overview Statistics Trail Chart Weather Telemetry Raw packets
 

This is the latest recevied weather packets stored in our database for station/object KB4JAC-13. If no packets are shown the sender has not sent any weather packets the latest 10 day(s).

<< 35 36 37 38 39 40 41 >>
Time Temp. Humidity Pressure Rain* Wind** Luminosity Snow
1788024207 31.11° C 66% 995.2 hPa 0 mm - - -
1788023605 31.67° C 65% 995.3 hPa 0 mm - - -
1788023005 31.11° C 66% 995.4 hPa 0 mm - - -
1788022405 31.11° C 68% 995.5 hPa 0 mm - - -
1788021805 30° C 71% 995.7 hPa 0 mm - - -
1788021204 30° C 71% 995.5 hPa 0 mm - - -
1788020603 29.44° C 75% 995.4 hPa 0 mm - - -
1788020003 30° C 72% 995.7 hPa 0 mm - - -
1788019402 29.44° C 73% 995.6 hPa 0 mm - - -
1788018801 30° C 72% 995.7 hPa 0 mm - - -
1788018201 28.89° C 74% 995.7 hPa 0 mm - - -
1788017600 28.89° C 77% 995.7 hPa 0 mm - - -
1788017000 28.33° C 75% 995.7 hPa 0 mm - - -
1788016399 30° C 72% 995.8 hPa 0 mm - - -
1788015799 29.44° C 73% 995.7 hPa 0 mm - - -
1788015198 28.33° C 74% 995.6 hPa 0 mm - - -
1788014597 27.22° C 78% 995.5 hPa 0 mm - - -
1788013997 28.33° C 75% 995.5 hPa 0 mm - - -
1788013397 27.22° C 78% 995.2 hPa 0 mm - - -
1788012796 27.78° C 78% 995.3 hPa 0 mm - - -
1788012197 26.67° C 78% 995.3 hPa 0 mm - - -
1788011594 26.67° C 78% 995.1 hPa 0 mm - - -
1788010995 26.11° C 80% 995.2 hPa 0 mm - - -
1788010393 26.11° C 82% 995.1 hPa 0 mm - - -
1788009795 25° C 83% 995 hPa 0 mm - - -

* Rain since midnight (hover to see other rain measurements)
** Current wind speed in m/s (hover to see current wind gust speed)